Location: Poigny-la-Forêt
(48.6876°N, 1.7701°E)
Time: 02:59:07
(UTC+02:00)

Envisat - Pass Details

Date: 30 March 2019
Orbit: 764 x 766 km, 98.1° (Epoch: 17 October)

Event Time Altitude Azimuth Distance (km) Brightness Sun altitude
Rises 19:41:34 0° 176° (S) 3,217 6.1 -4.3°
Reaches altitude 10° 19:43:54 10° 181° (S) 2,296 5.4 -4.7°
Maximum altitude 19:48:52 56° 260° (W) 905 3.8 -5.5°
Drops below altitude 10° 19:53:54 10° 339° (NNW) 2,314 6.0 -6.3°
Sets 19:56:16 0° 343° (NNW) 3,245 6.7 -6.7°
